Weather History for KBJI - January, 2012

Change the Weather History Date:

Wednesday, January 11, 2012

  Actual Average Record
Temperature  
Mean Temperature 18 °F -  
Max Temperature 33 °F 11 °F 45 °F (1986)
Min Temperature 3 °F -10 °F -36 °F (1979)
Degree Days  
Heating Degree Days 47    
Moisture  
Dew Point 13 °F    
Average Humidity 84    
Maximum Humidity 100    
Minimum Humidity 72    
Precipitation  
Precipitation 0.02 in - - ()
Sea Level Pressure  
Sea Level Pressure 29.80 in    
Wind  
Wind Speed 14 mph (NW)    
Max Wind Speed 28 mph    
Max Gust Speed 34 mph    
Visibility 8 miles    
Events Rain , Snow    
Averages and records for this station are not official NWS values.
T = Trace of Precipitation, MM = Missing Value Source: NWS Daily Summary

Daily Weather History Graph

Daily Weather History Graph

Search for Another Location

Airport or City:

Trip Planner

Search our weather history database for the weather conditions in past years. The results will help you decide how hot, cold, wet, or windy it might be!

Date:

Astronomy

Jan. 11, 2012 Rise Set
Actual Time 8:05 AM CST 4:50 PM CST
Civil Twilight 7:30 AM CST 5:25 PM CST
Nautical Twilight 6:51 AM CST 6:03 PM CST
Astronomical Twilight 6:14 AM CST 6:40 PM CST
Moon 8:04 PM CST (1/11) 9:04 AM CST (1/11)
Length of Visible Light 9h 54m
Length of Day
8h 44m
Waning Gibbous, 93% of the Moon is Illuminated
Jan 11
Waning Gibbous
Jan 16
Last Quarter
Jan 23
New
Jan 30
First Quarter
Feb 7
Full

Hourly Weather History & Observations

Time (CST) Temp. Windchill Dew Point Humidity Pressure Visibility Wind Dir Wind Speed Gust Speed Precip Events Conditions
12:15 AM 32.0 °F 26.4 °F 32.0 °F 100% 29.61 in 10.0 mi WNW 5.8 mph - N/A Rain Light Rain
12:35 AM 32.0 °F 25.6 °F 32.0 °F 100% 29.61 in 7.0 mi NW 6.9 mph - N/A Rain Light Rain
12:55 AM 33.8 °F 25.8 °F 32.0 °F 93% 29.61 in 7.0 mi NW 10.4 mph - N/A Rain Rain
1:15 AM 32.0 °F 22.5 °F 32.0 °F 100% 29.61 in 5.0 mi NW 12.7 mph 18.4 mph N/A Rain Light Rain
1:35 AM 32.0 °F 24.8 °F 32.0 °F 100% 29.61 in 4.0 mi NW 8.1 mph - 0.02 in Snow Light Snow
1:55 AM 32.0 °F 24.8 °F 32.0 °F 100% 29.62 in 5.0 mi WNW 8.1 mph - 0.02 in Snow Light Snow
2:15 AM 32.0 °F 24.8 °F 32.0 °F 100% 29.63 in 4.0 mi WNW 8.1 mph - N/A Snow Light Snow
2:35 AM 32.0 °F 23.0 °F 32.0 °F 100% 29.64 in 2.5 mi WNW 11.5 mph - N/A Snow Light Snow
2:55 AM 32.0 °F 22.5 °F 32.0 °F 100% 29.64 in 2.0 mi NW 12.7 mph - N/A Snow Light Snow
3:15 AM 32.0 °F 22.1 °F 32.0 °F 100% 29.65 in 2.0 mi NW 13.8 mph - N/A Snow Light Snow
3:35 AM 32.0 °F 21.6 °F 32.0 °F 100% 29.65 in 2.5 mi NW 15.0 mph 18.4 mph N/A Snow Light Snow
3:55 AM 32.0 °F 22.5 °F 32.0 °F 100% 29.65 in 4.0 mi NW 12.7 mph - N/A Snow Light Snow
4:15 AM 32.0 °F 23.0 °F 32.0 °F 100% 29.66 in 4.0 mi NW 11.5 mph - N/A Snow Light Snow
4:35 AM 32.0 °F 23.0 °F 30.2 °F 93% 29.66 in 7.0 mi NW 11.5 mph - N/A   Overcast
4:55 AM 32.0 °F 22.5 °F 30.2 °F 93% 29.67 in 10.0 mi NW 12.7 mph - N/A   Overcast
5:15 AM 30.2 °F 20.2 °F 30.2 °F 100% 29.67 in 10.0 mi NW 12.7 mph - N/A   Overcast
5:35 AM 30.2 °F 18.1 °F 28.4 °F 93% 29.68 in 7.0 mi NW 18.4 mph - N/A   Overcast
5:55 AM 30.2 °F 17.4 °F 28.4 °F 93% 29.70 in 10.0 mi NW 20.7 mph 28.8 mph N/A   Overcast
6:15 AM 28.4 °F 15.1 °F 28.4 °F 100% 29.72 in 7.0 mi NW 20.7 mph 25.3 mph N/A   Overcast
6:35 AM 26.6 °F 13.4 °F 24.8 °F 93% 29.74 in 10.0 mi WNW 18.4 mph - N/A   Overcast
6:55 AM 24.8 °F 9.6 °F 23.0 °F 93% 29.75 in 7.0 mi NW 23.0 mph 29.9 mph N/A   Overcast
7:15 AM 23.0 °F 7.2 °F 21.2 °F 93% 29.76 in 10.0 mi WNW 23.0 mph 28.8 mph N/A   Overcast
7:35 AM 21.2 °F 6.0 °F 17.6 °F 86% 29.78 in 10.0 mi NW 19.6 mph 33.4 mph N/A   Overcast
8:15 AM 17.6 °F -0.6 °F 12.2 °F 79% 29.81 in 10.0 mi NW 25.3 mph 33.4 mph N/A   Overcast
8:35 AM 15.8 °F -1.9 °F 10.4 °F 79% 29.82 in 10.0 mi NW 21.9 mph 34.5 mph N/A   Overcast
8:55 AM 14.0 °F -5.1 °F 10.4 °F 86% 29.83 in 10.0 mi WNW 24.2 mph 27.6 mph N/A   Overcast
9:15 AM 14.0 °F -4.3 °F 8.6 °F 79% 29.84 in 10.0 mi NW 21.9 mph 29.9 mph N/A   Overcast
9:35 AM 12.2 °F -7.9 °F 6.8 °F 79% 29.85 in 10.0 mi NW 25.3 mph 33.4 mph N/A   Overcast
10:15 AM 12.2 °F -3.1 °F 6.8 °F 79% 29.86 in 10.0 mi NW 13.8 mph 23.0 mph N/A Snow Light Snow
10:35 AM 12.2 °F -8.2 °F 5.0 °F 73% 29.87 in 10.0 mi NW 26.5 mph 34.5 mph N/A   Mostly Cloudy
10:55 AM 10.4 °F -10.3 °F 3.2 °F 73% 29.87 in 10.0 mi WNW 25.3 mph 34.5 mph N/A   Scattered Clouds
11:15 AM 10.4 °F -11.0 °F 3.2 °F 73% 29.87 in 10.0 mi WNW 27.6 mph 32.2 mph N/A   Scattered Clouds
11:35 AM 10.4 °F -9.1 °F 3.2 °F 73% 29.86 in 10.0 mi WNW 21.9 mph 25.3 mph N/A   Scattered Clouds
12:15 PM 10.4 °F -8.2 °F 3.2 °F 73% 29.86 in 10.0 mi WNW 19.6 mph 27.6 mph N/A   Overcast
12:35 PM 10.4 °F -7.2 °F 3.2 °F 73% 29.86 in 10.0 mi WNW 17.3 mph 27.6 mph N/A   Overcast
12:55 PM 10.4 °F -8.2 °F 3.2 °F 73% 29.87 in 7.0 mi NW 19.6 mph 26.5 mph N/A   Overcast
1:15 PM 8.6 °F -10.5 °F 3.2 °F 79% 29.87 in 5.0 mi WNW 19.6 mph 27.6 mph N/A   Haze
1:35 PM 8.6 °F -12.3 °F 3.2 °F 79% 29.87 in 5.0 mi WNW 24.2 mph - N/A   Haze
1:55 PM 8.6 °F -9.5 °F 3.2 °F 79% 29.86 in 5.0 mi WNW 17.3 mph 23.0 mph N/A   Haze
2:15 PM 10.4 °F -8.6 °F 3.2 °F 73% 29.87 in 7.0 mi WNW 20.7 mph 27.6 mph N/A   Overcast
2:35 PM 8.6 °F -11.4 °F 1.4 °F 73% 29.88 in 10.0 mi NW 21.9 mph 27.6 mph N/A   Overcast
2:55 PM 8.6 °F -11.0 °F 1.4 °F 73% 29.88 in 10.0 mi NW 20.7 mph 24.2 mph N/A   Overcast
3:15 PM 8.6 °F -10.0 °F 1.4 °F 73% 29.89 in 10.0 mi NW 18.4 mph 25.3 mph N/A   Overcast
3:35 PM 8.6 °F -10.5 °F 1.4 °F 73% 29.90 in 4.0 mi WNW 19.6 mph 25.3 mph N/A   Haze
3:55 PM 8.6 °F -11.0 °F 1.4 °F 73% 29.91 in 10.0 mi WNW 20.7 mph 26.5 mph N/A   Overcast
4:15 PM 6.8 °F -12.4 °F 1.4 °F 79% 29.91 in 7.0 mi NW 18.4 mph 23.0 mph N/A   Overcast
4:35 PM 6.8 °F -11.3 °F -0.4 °F 72% 29.91 in 10.0 mi NW 16.1 mph - N/A   Overcast
4:55 PM 6.8 °F -11.3 °F -0.4 °F 72% 29.92 in 10.0 mi NW 16.1 mph 24.2 mph N/A   Overcast
5:15 PM 6.8 °F -10.0 °F -0.4 °F 72% 29.92 in 10.0 mi WNW 13.8 mph 18.4 mph N/A   Overcast
5:35 PM 5.0 °F -12.3 °F -0.4 °F 78% 29.92 in 10.0 mi WNW 13.8 mph - N/A   Overcast
5:55 PM 5.0 °F -13.0 °F -0.4 °F 78% 29.93 in 10.0 mi WNW 15.0 mph - N/A   Overcast
6:15 PM 5.0 °F -11.6 °F -0.4 °F 78% 29.93 in 10.0 mi NW 12.7 mph 18.4 mph N/A   Overcast
6:35 PM 5.0 °F -11.6 °F -0.4 °F 78% 29.93 in 10.0 mi NW 12.7 mph - N/A   Overcast
6:55 PM 5.0 °F -13.0 °F -0.4 °F 78% 29.93 in 10.0 mi NW 15.0 mph - N/A   Overcast
7:15 PM 5.0 °F -14.2 °F -0.4 °F 78% 29.93 in 10.0 mi WNW 17.3 mph - N/A   Overcast
7:35 PM 5.0 °F -14.7 °F -0.4 °F 78% 29.92 in 10.0 mi NW 18.4 mph - N/A   Overcast
7:55 PM 5.0 °F -11.6 °F -0.4 °F 78% 29.92 in 10.0 mi NW 12.7 mph - N/A   Overcast
8:15 PM 3.2 °F -15.9 °F -2.2 °F 78% 29.93 in 10.0 mi NW 16.1 mph 23.0 mph N/A   Overcast
8:55 PM 3.2 °F -13.9 °F -0.4 °F 85% 29.92 in 10.0 mi NW 12.7 mph 18.4 mph N/A   Overcast
9:15 PM 3.2 °F -15.3 °F -2.2 °F 78% 29.92 in 10.0 mi NW 15.0 mph - N/A   Overcast
9:35 PM 3.2 °F -12.2 °F -2.2 °F 78% 29.92 in 10.0 mi NW 10.4 mph - N/A   Overcast
10:15 PM 3.2 °F -17.1 °F -4.0 °F 72% 29.92 in 10.0 mi NW 18.4 mph - N/A   Overcast
10:35 PM 3.2 °F -14.6 °F -4.0 °F 72% 29.92 in 10.0 mi NW 13.8 mph - N/A   Overcast
10:55 PM 3.2 °F -13.1 °F -4.0 °F 72% 29.91 in 10.0 mi NNW 11.5 mph 20.7 mph N/A   Overcast
11:15 PM 3.2 °F -12.2 °F -4.0 °F 72% 29.91 in 10.0 mi NW 10.4 mph - N/A   Overcast
11:35 PM 3.2 °F -15.3 °F -4.0 °F 72% 29.91 in 10.0 mi NW 15.0 mph - N/A   Overcast
11:55 PM 3.2 °F -12.2 °F -4.0 °F 72% 29.91 in 10.0 mi NW 10.4 mph - N/A   Overcast